Regional Weather Roundup
Issued by NWS Cleveland, OH

Home | Current Version | Previous Version | Graphics & Text | Print | Product List | Glossary On
Versions: 1 2 3 4 5 6 7 8 9 10 11 12 13 14 15 16 17 18 19 20 21 22 23 24 25 26 27 28 29 30 31 32 33 34 35 36 37 38 39 40 41 42 43 44 45 46 47 48 49 50
000
ASUS41 KCLE 240310
RWRCLE
OHIO REGIONAL WEATHER ROUNDUP
NATIONAL WEATHER SERVICE CLEVELAND, OH
1100 PM EDT WED APR 23 2014

NOTE: "FAIR" INDICATES FEW OR NO CLOUDS BELOW 12,000 FEET WITH NO
SIGNIFICANT WEATHER AND/OR OBSTRUCTIONS TO VISIBILITY.

OHZ001>008-015>018-024>027-034-035-043-044-240400-
   NORTHWEST OHIO

CITY           SKY/WX    TMP DP  RH WIND       PRES   REMARKS
DEFIANCE       CLOUDY    51  24  34 E3        30.11R
FINDLAY        CLOUDY    47  32  56 SE7       30.10S
TOLEDO EXPRESS CLOUDY    46  29  51 E8        30.12R
TOLEDO EXEC    MOCLDY    45  29  53 E6        30.13R
LIMA           MOCLDY    48  34  58 SE10      30.10S
$$

OHZ009>014-019>023-028>033-038-089-240400-
   NORTHEAST OHIO

CITY           SKY/WX    TMP DP  RH WIND       PRES   REMARKS
CLE-HOPKINS    PTCLDY    43  27  53 NE5       30.15S
CLE-LAKEFRONT  CLEAR     43  29  57 CALM      30.13R
CUY CO. ARPT   PTCLDY    36  30  80 CALM      30.14R
LORAIN-ELYRIA  CLEAR     40  29  64 CALM      30.14R
ASHTABULA      CLEAR     35  18  49 W7        30.12R WCI  29
AKRON-CANTON   CLEAR     39  22  49 N6        30.12R
WOOSTER        CLEAR     34  29  82 N3        30.13R
MANSFIELD      PTCLDY    40  27  59 NE5       30.12R
YOUNGSTOWN     PTCLDY    36  13  38 NW5       30.10R
$$

OHZ042-051>053-060>062-070>072-077>081-240400-
  SOUTHWEST OHIO

CITY           SKY/WX    TMP DP  RH WIND       PRES   REMARKS
CINC-COVINGTON PTCLDY    54  31  41 NE10      30.08S
CINC-LUNKEN    PTCLDY    46  39  76 CALM      30.10R
HAMILTON       PTCLDY    48  34  58 NE6       30.10S
DAYTON         PTCLDY    48  33  56 E6        30.10S
WRIGHT-PAT AFB CLEAR     44  33  63 N5        30.10S
DAYTON GENERAL PTCLDY    47  34  60 E3        30.09R
WILMINGTON     CLEAR     45  32  60 NE5       30.10R
$$

OHZ036-037-039>041-045>050-054>059-063>069-073>076-082>088-240400-
  CENTRAL AND SOUTHEAST OHIO

CITY           SKY/WX    TMP DP  RH WIND       PRES   REMARKS
COLUMBUS       CLEAR     47  30  51 NE6       30.12R
OSU AIRPORT    CLEAR     44  30  57 NE7       30.12R
BOLTON FIELD   CLEAR     45  32  61 NE5       30.12R
RICKENBACK AFB CLEAR     45  31  58 NE10      30.11R
NEWARK         CLEAR     45  29  53 NE3       30.12R
MARION         PTCLDY    41  29  62 SE7       30.12R
LANCASTER      CLEAR     42  34  73 NE8       30.12R
ZANESVILLE     CLEAR     43  29  57 CALM      30.12R
NEW PHILLY     CLEAR     38  29  70 CALM      30.13R
$$



USA.gov is the U.S. government's official web portal to all federal, state and local government web resources and services.